Ithaca, NY

9:43 AM EST on January 21, 2017 (GMT -0500)
Ithaca

Weather History for KITH - September, 2013

Change the Weather History Date:

Friday, September 20, 2013

  Actual Average Record
Temperature  
Mean Temperature 62 °F -  
Max Temperature 77 °F 68 °F 89 °F (1932)
Min Temperature 48 °F 48 °F 29 °F (1929)
Degree Days  
Heating Degree Days 2    
Growing Degree Days 12 (Base 50)    
Moisture  
Dew Point 54 °F    
Average Humidity 75    
Maximum Humidity 100    
Minimum Humidity 50    
Precipitation  
Precipitation 0.00 in - - ()
Sea Level Pressure  
Sea Level Pressure 30.01 in    
Wind  
Wind Speed 7 mph (SE)    
Max Wind Speed 17 mph    
Max Gust Speed 23 mph    
Visibility 10 miles    
Events      
Averages and records for this station are not official NWS values.
T = Trace of Precipitation, MM = Missing Value Source: NWS Daily Summary

Daily Weather History Graph

Daily Weather History Graph

Search for Another Location

Airport or City:

Trip Planner

Search our weather history database for the weather conditions in past years. The results will help you decide how hot, cold, wet, or windy it might be!

Date:

Astronomy

Sep. 20, 2013 Rise Set
Actual Time 6:51 AM EDT 7:06 PM EDT
Civil Twilight 6:23 AM EDT 7:34 PM EDT
Nautical Twilight 5:50 AM EDT 8:07 PM EDT
Astronomical Twilight 5:16 AM EDT 8:41 PM EDT
Moon 7:35 PM EDT (9/20) 8:06 AM EDT (9/20)
Length of Visible Light 13h 11m
Length of Day
12h 15m
Full, 98% of the Moon is Illuminated
Sep 20
Full
Sep 26
Last Quarter
Oct 4
New
Oct 11
First Quarter
Oct 18
Full

Hourly Weather History & Observations

Time (EDT) Temp. Dew Point Humidity Pressure Visibility Wind Dir Wind Speed Gust Speed Precip Events Conditions
12:56 AM 52.0 °F 50.0 °F 93% 30.07 in 10.0 mi East 5.8 mph - N/A   Clear
1:56 AM 50.9 °F 50.0 °F 97% 30.08 in 10.0 mi East 4.6 mph - N/A   Clear
2:56 AM 50.9 °F 50.0 °F 97% 30.07 in 10.0 mi East 5.8 mph - N/A   Clear
3:56 AM 48.9 °F 48.9 °F 100% 30.07 in 9.0 mi East 3.5 mph - N/A   Clear
4:56 AM 50.0 °F 48.9 °F 96% 30.08 in 10.0 mi East 5.8 mph - N/A   Clear
5:56 AM 50.9 °F 50.0 °F 97% 30.06 in 9.0 mi East 4.6 mph - N/A   Clear
6:13 AM 50.0 °F 48.2 °F 94% 30.07 in 10.0 mi East 5.8 mph - N/A   Clear
6:56 AM 50.0 °F 50.0 °F 100% 30.07 in 10.0 mi East 5.8 mph - N/A   Clear
7:56 AM 54.0 °F 52.0 °F 93% 30.08 in 10.0 mi ESE 3.5 mph - N/A   Clear
8:56 AM 61.9 °F 55.9 °F 81% 30.08 in 10.0 mi South 6.9 mph - N/A   Clear
9:56 AM 66.9 °F 57.9 °F 73% 30.06 in 10.0 mi South 6.9 mph - N/A   Clear
10:56 AM 70.0 °F 59.0 °F 68% 30.05 in 10.0 mi South 9.2 mph - N/A   Clear
11:56 AM 72.9 °F 59.0 °F 62% 30.04 in 10.0 mi South 8.1 mph - N/A   Clear
12:56 PM 74.8 °F 59.0 °F 58% 30.01 in 10.0 mi South 8.1 mph - N/A   Partly Cloudy
1:56 PM 75.9 °F 57.9 °F 54% 29.99 in 10.0 mi South 13.8 mph 18.4 mph N/A   Clear
2:56 PM 77.9 °F 57.9 °F 50% 29.97 in 10.0 mi South 16.1 mph 19.6 mph N/A   Clear
3:56 PM 77.0 °F 56.8 °F 50% 29.96 in 10.0 mi South 10.4 mph - N/A   Clear
4:56 PM 75.9 °F 56.8 °F 51% 29.93 in 10.0 mi South 13.8 mph - N/A   Clear
5:56 PM 73.9 °F 55.9 °F 53% 29.93 in 10.0 mi South 11.5 mph - N/A   Clear
6:56 PM 70.9 °F 54.9 °F 57% 29.93 in 10.0 mi South 10.4 mph - N/A   Clear
7:56 PM 65.8 °F 55.9 °F 70% 29.92 in 10.0 mi SSE 8.1 mph - N/A   Clear
8:56 PM 65.8 °F 55.9 °F 70% 29.92 in 10.0 mi SSE 9.2 mph - N/A   Clear
9:56 PM 64.9 °F 55.9 °F 73% 29.92 in 10.0 mi South 10.4 mph - N/A   Clear
10:56 PM 64.9 °F 54.9 °F 70% 29.92 in 10.0 mi South 9.2 mph - N/A   Clear
11:56 PM 63.9 °F 54.9 °F 72% 29.90 in 10.0 mi South 17.3 mph 23.0 mph N/A   Clear